IWY705 TDPD-TLPC

Flight info

Callsign IWY705
Flight time 0h 32m
Altitude 13000
Route DOM FOF KISES SLU
Aircraft AT76/M-SDFGHIRWY/LB1

Departure

Time 2026-05-06 18:44
Airport Douglas-Charles Airport (TDPD)

Arrival

Time 2026-05-06 19:17
Airport George F. L. Charles Airport (TLPC)
Time Latitude Longitude Altitude Speed Heading
2026-05-06 17:48 15.54629 -61.29929 44 ft 0 kts 251°
2026-05-06 18:40 15.54614 -61.29989 43 ft 9 kts 272°
2026-05-06 18:40 15.54644 -61.30057 46 ft 11 kts 297°
2026-05-06 18:40 15.54659 -61.30136 43 ft 12 kts 250°
2026-05-06 18:40 15.54630 -61.30217 43 ft 12 kts 250°
2026-05-06 18:41 15.54600 -61.30302 44 ft 13 kts 250°
2026-05-06 18:41 15.54568 -61.30392 46 ft 14 kts 250°
2026-05-06 18:41 15.54532 -61.30493 42 ft 16 kts 250°
2026-05-06 18:41 15.54494 -61.30600 46 ft 16 kts 249°
2026-05-06 18:42 15.54457 -61.30702 47 ft 15 kts 249°
2026-05-06 18:42 15.54414 -61.30802 45 ft 15 kts 243°
2026-05-06 18:42 15.54385 -61.30881 46 ft 3 kts 315°
2026-05-06 18:42 15.54400 -61.30862 47 ft 5 kts 69°
2026-05-06 18:43 15.54401 -61.30859 47 ft 0 kts 71°
2026-05-06 18:44 15.54429 -61.30776 47 ft 39 kts 70°
2026-05-06 18:44 15.54595 -61.30313 45 ft 98 kts 70°
2026-05-06 18:44 15.54871 -61.29511 257 ft 124 kts 70°
2026-05-06 18:44 15.55159 -61.28654 830 ft 124 kts 82°
2026-05-06 18:45 15.55080 -61.27779 1407 ft 127 kts 110°
2026-05-06 18:45 15.54762 -61.26931 2014 ft 127 kts 111°
2026-05-06 18:45 15.54406 -61.26069 2554 ft 132 kts 113°
2026-05-06 18:45 15.54110 -61.25182 3149 ft 130 kts 98°
2026-05-06 18:46 15.53941 -61.24260 3740 ft 130 kts 104°
2026-05-06 18:46 15.53692 -61.23372 4356 ft 126 kts 103°
2026-05-06 18:46 15.53471 -61.22455 4782 ft 134 kts 103°
2026-05-06 18:46 15.53206 -61.21394 4781 ft 174 kts 103°
2026-05-06 18:47 15.52848 -61.20178 5182 ft 175 kts 119°
2026-05-06 18:47 15.51900 -61.19393 5638 ft 185 kts 163°
2026-05-06 18:47 15.50643 -61.19199 6225 ft 178 kts 171°
2026-05-06 18:47 15.49394 -61.19133 6579 ft 188 kts 173°
2026-05-06 18:48 15.48104 -61.18854 6965 ft 190 kts 162°
2026-05-06 18:48 15.46822 -61.18500 7387 ft 192 kts 164°
2026-05-06 18:48 15.45512 -61.18207 7751 ft 194 kts 167°
2026-05-06 18:48 15.44183 -61.17961 8095 ft 194 kts 168°
2026-05-06 18:49 15.42845 -61.17730 8369 ft 195 kts 168°
2026-05-06 18:49 15.41506 -61.17488 8634 ft 196 kts 168°
2026-05-06 18:49 15.40164 -61.17243 8882 ft 196 kts 168°
2026-05-06 18:49 15.38815 -61.16993 9127 ft 197 kts 168°
2026-05-06 18:50 15.37481 -61.16745 9367 ft 198 kts 168°
2026-05-06 18:50 15.36126 -61.16492 9585 ft 199 kts 168°
2026-05-06 18:50 15.34760 -61.16241 9799 ft 200 kts 168°
2026-05-06 18:50 15.33402 -61.15988 10033 ft 201 kts 168°
2026-05-06 18:51 15.32019 -61.15734 10269 ft 202 kts 168°
2026-05-06 18:51 15.30634 -61.15473 10516 ft 201 kts 168°
2026-05-06 18:51 15.29242 -61.15232 10706 ft 204 kts 169°
2026-05-06 18:51 15.27836 -61.14982 10921 ft 206 kts 168°
2026-05-06 18:52 15.26427 -61.14722 11145 ft 206 kts 168°
2026-05-06 18:52 15.25011 -61.14463 11368 ft 207 kts 168°
2026-05-06 18:52 15.23590 -61.14203 11569 ft 208 kts 168°
2026-05-06 18:52 15.22158 -61.13936 11780 ft 209 kts 168°
2026-05-06 18:53 15.20735 -61.13667 12030 ft 207 kts 168°
2026-05-06 18:53 15.19316 -61.13402 12285 ft 207 kts 168°
2026-05-06 18:53 15.17903 -61.13138 12533 ft 206 kts 168°
2026-05-06 18:53 15.16489 -61.12877 12731 ft 209 kts 168°
2026-05-06 18:54 15.15034 -61.12610 12813 ft 216 kts 168°
2026-05-06 18:54 15.13527 -61.12329 12852 ft 225 kts 168°
2026-05-06 18:54 15.11956 -61.12046 12899 ft 232 kts 169°
2026-05-06 18:54 15.10345 -61.11762 12938 ft 238 kts 169°
2026-05-06 18:55 15.08701 -61.11468 12951 ft 240 kts 168°
2026-05-06 18:55 15.07057 -61.11153 12960 ft 242 kts 168°
2026-05-06 18:55 15.05381 -61.10833 12969 ft 247 kts 168°
2026-05-06 18:55 15.03675 -61.10524 12973 ft 251 kts 169°
2026-05-06 18:56 15.01947 -61.10201 12974 ft 253 kts 168°
2026-05-06 18:56 15.00214 -61.09871 12974 ft 253 kts 168°
2026-05-06 18:56 14.98474 -61.09543 12974 ft 255 kts 168°
2026-05-06 18:56 14.96720 -61.09219 12974 ft 256 kts 169°
2026-05-06 18:57 14.94966 -61.08900 12976 ft 256 kts 168°
2026-05-06 18:57 14.93236 -61.08581 12976 ft 256 kts 168°
2026-05-06 18:57 14.91483 -61.08260 12974 ft 256 kts 168°
2026-05-06 18:57 14.89727 -61.07935 12975 ft 256 kts 168°
2026-05-06 18:58 14.87979 -61.07613 12982 ft 255 kts 169°
2026-05-06 18:58 14.86229 -61.07293 12984 ft 255 kts 168°
2026-05-06 18:58 14.84478 -61.06969 12983 ft 255 kts 168°
2026-05-06 18:58 14.82728 -61.06641 12988 ft 256 kts 168°
2026-05-06 18:59 14.80976 -61.06316 12989 ft 256 kts 168°
2026-05-06 18:59 14.79222 -61.05991 12992 ft 256 kts 168°
2026-05-06 18:59 14.77461 -61.05666 12984 ft 257 kts 168°
2026-05-06 18:59 14.75701 -61.05341 12988 ft 257 kts 168°
2026-05-06 19:00 14.73940 -61.05016 12985 ft 257 kts 168°
2026-05-06 19:00 14.72180 -61.04693 12984 ft 257 kts 168°
2026-05-06 19:00 14.70421 -61.04368 12983 ft 257 kts 168°
2026-05-06 19:00 14.69259 -61.04154 12982 ft 256 kts 168°
2026-05-06 19:01 14.66911 -61.03720 12987 ft 256 kts 168°
2026-05-06 19:01 14.65157 -61.03394 12984 ft 256 kts 168°
2026-05-06 19:01 14.63405 -61.03072 12984 ft 256 kts 168°
2026-05-06 19:01 14.61654 -61.02750 12983 ft 256 kts 168°
2026-05-06 19:02 14.59896 -61.02429 12985 ft 256 kts 168°
2026-05-06 19:02 14.58143 -61.02136 12989 ft 255 kts 172°
2026-05-06 19:02 14.56384 -61.02028 12983 ft 258 kts 176°
2026-05-06 19:02 14.54592 -61.01984 12984 ft 258 kts 177°
2026-05-06 19:03 14.52801 -61.01940 12990 ft 257 kts 176°
2026-05-06 19:03 14.51010 -61.01869 12986 ft 257 kts 175°
2026-05-06 19:03 14.49220 -61.01777 12983 ft 257 kts 175°
2026-05-06 19:03 14.47434 -61.01680 12983 ft 257 kts 175°
2026-05-06 19:04 14.45650 -61.01585 12984 ft 256 kts 175°
2026-05-06 19:04 14.43873 -61.01488 12989 ft 256 kts 175°
2026-05-06 19:04 14.42096 -61.01392 12990 ft 256 kts 175°
2026-05-06 19:04 14.40320 -61.01299 12993 ft 256 kts 175°
2026-05-06 19:05 14.38543 -61.01203 12994 ft 256 kts 175°
2026-05-06 19:05 14.36766 -61.01108 12994 ft 255 kts 175°
2026-05-06 19:05 14.35026 -61.01018 12800 ft 247 kts 175°
2026-05-06 19:05 14.33297 -61.00924 12375 ft 250 kts 175°
2026-05-06 19:06 14.31553 -61.00829 11951 ft 252 kts 175°
2026-05-06 19:06 14.29797 -61.00732 11525 ft 253 kts 175°
2026-05-06 19:06 14.28034 -61.00640 11101 ft 254 kts 175°
2026-05-06 19:06 14.26274 -61.00543 10669 ft 254 kts 175°
2026-05-06 19:07 14.24512 -61.00450 10251 ft 253 kts 175°
2026-05-06 19:07 14.23349 -61.00389 9969 ft 252 kts 175°
2026-05-06 19:07 14.21597 -61.00296 9542 ft 251 kts 175°
2026-05-06 19:07 14.19293 -61.00163 8979 ft 249 kts 174°
2026-05-06 19:08 14.17562 -61.00056 8544 ft 249 kts 175°
2026-05-06 19:08 14.15835 -61.00034 8082 ft 248 kts 179°
2026-05-06 19:08 14.14687 -61.00075 7734 ft 250 kts 180°
2026-05-06 19:08 14.12346 -61.00199 7029 ft 253 kts 181°
2026-05-06 19:09 14.10646 -61.00308 6502 ft 234 kts 181°
2026-05-06 19:09 14.09080 -61.00405 5973 ft 218 kts 180°
2026-05-06 19:09 14.07606 -61.00476 5440 ft 207 kts 179°
2026-05-06 19:09 14.06662 -61.00521 5091 ft 203 kts 179°
2026-05-06 19:10 14.05272 -61.00592 4570 ft 196 kts 179°
2026-05-06 19:10 14.03952 -61.00664 4254 ft 183 kts 179°
2026-05-06 19:10 14.02736 -61.00742 4127 ft 169 kts 179°
2026-05-06 19:10 14.01606 -61.00823 4060 ft 156 kts 180°
2026-05-06 19:11 14.00650 -61.01244 3955 ft 156 kts 230°
2026-05-06 19:11 14.00137 -61.02247 3842 ft 158 kts 244°
2026-05-06 19:11 13.99685 -61.03305 3823 ft 172 kts 244°
2026-05-06 19:11 13.99153 -61.04553 3574 ft 208 kts 246°
2026-05-06 19:12 13.98627 -61.05910 3216 ft 200 kts 248°
2026-05-06 19:12 13.98132 -61.07242 2787 ft 198 kts 248°
2026-05-06 19:12 13.97638 -61.08553 2385 ft 194 kts 248°
2026-05-06 19:12 13.97160 -61.09805 2187 ft 180 kts 247°
2026-05-06 19:13 13.96826 -61.10993 2093 ft 173 kts 273°
2026-05-06 19:13 13.97307 -61.12058 2050 ft 163 kts 323°
2026-05-06 19:13 13.98322 -61.12343 2035 ft 149 kts 17°
2026-05-06 19:13 13.99065 -61.11718 2027 ft 138 kts 60°
2026-05-06 19:14 13.99352 -61.10804 2019 ft 134 kts 86°
2026-05-06 19:14 13.99433 -61.09838 1940 ft 139 kts 83°
2026-05-06 19:14 13.99577 -61.08833 1835 ft 144 kts 78°
2026-05-06 19:14 13.99756 -61.07806 1792 ft 144 kts 79°
2026-05-06 19:15 14.00008 -61.06845 1879 ft 134 kts 70°
2026-05-06 19:15 14.00282 -61.05959 1603 ft 133 kts 75°
2026-05-06 19:15 14.00516 -61.05002 1161 ft 138 kts 76°
2026-05-06 19:15 14.00740 -61.04067 867 ft 132 kts 75°
2026-05-06 19:16 14.00964 -61.03207 771 ft 116 kts 75°
2026-05-06 19:16 14.01183 -61.02408 568 ft 114 kts 73°
2026-05-06 19:16 14.01400 -61.01620 385 ft 116 kts 76°
2026-05-06 19:16 14.01591 -61.00818 217 ft 115 kts 73°
2026-05-06 19:17 14.01809 -61.00030 51 ft 113 kts 75°
2026-05-06 19:17 14.01993 -60.99329 23 ft 63 kts 73°
2026-05-06 19:17 14.02046 -60.99128 23 ft 15 kts 76°
2026-05-06 19:17 14.02071 -60.99075 25 ft 3 kts 98°
2026-05-06 19:18 14.02057 -60.99086 27 ft 10 kts 250°
2026-05-06 19:18 14.02034 -60.99182 24 ft 16 kts 255°
2026-05-06 19:18 14.02005 -60.99292 23 ft 16 kts 255°
2026-05-06 19:18 14.01975 -60.99403 24 ft 18 kts 255°
2026-05-06 19:19 14.01976 -60.99452 24 ft 9 kts 289°
2026-05-06 19:19 14.01992 -60.99501 27 ft 7 kts 287°
2026-05-06 19:19 14.02002 -60.99555 27 ft 9 kts 263°
2026-05-06 19:19 14.02021 -60.99583 24 ft 4 kts 348°
2026-05-06 19:20 14.02031 -60.99575 24 ft 2 kts 63°
2026-05-06 19:20 14.02028 -60.99561 24 ft 2 kts 130°
2026-05-06 19:20 14.02023 -60.99559 26 ft 0 kts 150°